sat.trackr.live / text

‹ back to catalog

ONEWEB-0715

NORAD 55176 · 2023-004AN

PAYLOAD ACTIVE UNKNOWN

§ Identity

Operator
Country
UK
Launch date
2023-01-10
Launch site
AFETR
Launch vehicle
Mass (kg)
RCS (m²)

Purposes: comms

External: N2YO · Heavens-Above · Gunter

§ Orbital elements

Epoch: 2026-09-20T02:27:16.573824Z

Period
109.80 min
Inclination
87.8971°
Eccentricity
0.0001113
Mean motion
13.11418099 rev/d
Perigee alt
1,216.8 km
Apogee alt
1,218.5 km
Semi-major
7,595.8 km
B*
8.4839e-4
RAAN
2.2014°
Arg perigee
107.3516°
Mean anomaly
252.7734°
Rev number
17,830

§ Raw data

ONEWEB-07151 55176U 23004AN  26263.10227516  .00000313  00000+0  84839-3 0  99972 55176  87.8971   2.2014 0001113 107.3516 252.7734 13.11418099178300

JSON: /api/v1/satellites/55176 · /tle

For live sub-satellite position, see the globe view (requires WebGL).

§ Visibility from observer

Set your observer location to see the next 7 days of passes ≥ 10°. The values pass through the URL so the page stays shareable.

No JS? Fill the form by hand. The geolocation button needs JavaScript.